GFSGBSN_sfc_30mbdewp_099.txt.gz
Dewpoint
47 48 48 48 47 47 46 47 47 47 47 47 47 46 45 44 43 44 46 46 45 44 44 44 44 47 47 34 28 35 45 50 49 41 35 30 29 28 26 26 25 21 21 21 19 18 16
46 44 44 46 46 46 46 47 47 47 47 48 48 48 47 46 44 44 45 44 44 43 45 44 44 49 47 24 24 21 33 39 32 34 33 32 30 30 27 26 24 22 21 20 21 20 20
44 43 42 41 42 44 44 45 45 46 47 47 48 48 47 47 46 46 45 45 44 43 44 43 44 48 43 18 20 20 22 24 21 19 16 23 30 28 27 26 27 25 23 24 23 22 21
44 43 41 41 42 44 43 42 41 43 44 45 44 47 47 47 47 46 45 43 43 42 43 44 48 46 38 34 30 29 29 19 16 15 16 21 24 27 28 29 27 26 24 20 22 22 22
44 44 43 41 43 44 44 43 43 43 42 45 46 46 47 47 47 45 44 42 42 42 43 46 47 44 37 36 31 30 30 20 12 8 16 16 22 23 26 26 25 25 22 22 22 23 23
40 42 43 41 42 43 44 43 43 43 45 45 44 46 47 47 46 45 43 42 38 41 42 42 43 40 40 26 21 18 22 21 24 22 12 13 10 13 23 25 22 23 22 22 21 22 22
41 40 41 41 41 40 41 43 42 42 44 43 42 43 46 46 45 44 42 36 32 33 38 39 39 33 30 33 32 16 16 19 18 28 10 11 6 5 8 21 23 23 22 21 21 21 21
39 43 43 42 42 42 41 41 42 43 43 42 43 43 45 46 45 44 41 33 34 34 31 32 29 27 29 34 27 23 16 11 17 28 28 12 7 7 7 12 18 20 19 18 18 20 21
41 41 41 40 40 39 40 41 41 42 43 43 43 43 43 45 44 40 36 34 36 35 30 23 23 22 23 19 15 13 13 12 14 24 29 23 21 14 8 7 9 10 15 17 17 20 23
39 38 39 39 40 41 41 41 40 40 41 42 43 44 43 44 39 36 31 33 36 38 30 19 18 14 15 15 18 20 16 14 14 14 22 26 26 19 8 8 12 10 10 13 17 20 22
40 39 39 39 40 41 42 42 42 41 41 41 42 43 43 42 40 35 31 36 36 37 12 -3 9 20 15 18 21 21 22 17 14 13 18 18 19 19 17 16 11 11 13 12 14 19 22
37 38 39 38 40 41 40 41 41 40 42 41 41 41 42 39 40 39 37 38 37 27 13 7 22 21 21 23 22 23 20 21 18 15 12 13 15 13 15 16 16 16 16 18 17 22 21
35 37 38 38 39 40 40 40 40 41 41 40 41 41 41 38 36 37 40 36 25 19 2 -9 -2 21 22 25 25 24 24 18 15 13 12 11 10 10 13 14 16 16 14 16 20 18 18
36 36 37 38 39 40 40 40 40 41 40 41 41 41 41 40 40 39 37 31 18 11 4 2 11 12 20 18 20 23 21 22 22 20 13 10 10 9 11 14 16 17 16 17 18 19 21
36 37 37 37 39 39 39 39 39 40 41 41 40 37 38 38 41 40 34 21 14 13 11 11 9 11 10 16 11 18 20 19 22 22 19 17 14 25 12 9 16 18 17 18 18 22 23
32 35 36 36 37 38 38 39 38 38 39 40 38 36 36 37 40 38 30 20 19 17 16 16 12 12 10 14 20 26 19 30 25 23 24 26 23 25 27 10 12 18 20 16 18 15 16
35 35 36 36 37 37 38 38 38 38 39 40 36 32 33 37 39 34 23 21 17 17 15 12 11 10 15 18 21 24 24 30 32 24 17 24 24 24 26 11 11 17 16 18 22 22 17
36 35 37 37 37 37 37 38 38 38 39 38 33 26 38 40 31 31 25 21 19 19 20 17 11 9 9 13 17 17 27 28 31 30 20 25 22 25 25 30 31 18 14 13 16 11 16
35 35 36 37 37 38 38 37 39 39 39 36 30 29 38 35 25 25 24 22 20 19 18 16 12 8 10 9 9 17 27 24 25 29 25 23 21 18 25 26 29 23 23 23 13 13 13
35 36 37 38 38 38 39 38 38 39 39 36 33 26 29 35 34 29 26 28 26 23 17 15 15 15 10 10 12 16 17 19 19 24 26 26 17 10 12 23 26 13 17 29 28 17 13
34 37 38 38 37 37 38 38 38 39 39 37 33 26 27 25 29 30 28 24 22 27 22 21 13 10 8 9 11 13 13 11 18 20 21 22 19 18 17 15 14 11 9 15 27 27 25
35 38 38 37 36 36 36 37 39 39 39 36 29 28 28 27 24 26 28 27 22 18 21 23 22 15 13 9 8 9 11 10 20 24 17 22 22 22 20 21 16 13 10 10 11 12 13
35 37 37 36 36 36 36 36 37 38 38 34 35 33 30 25 23 22 23 25 28 27 21 19 23 23 22 21 29 30 28 22 24 23 25 25 24 22 20 20 21 15 13 12 11 10 8
34 37 36 36 35 36 37 38 38 38 38 37 34 33 28 22 22 20 20 20 22 25 25 25 25 27 25 33 33 31 28 24 23 22 23 28 25 25 24 20 16 16 19 16 14 19 23
33 35 36 36 35 35 38 38 38 38 39 37 36 33 28 23 23 21 19 18 22 27 25 23 23 28 34 32 26 21 20 20 21 21 20 22 25 24 21 19 20 15 18 24 26 31 31
30 32 35 36 37 36 38 38 39 38 38 38 37 37 34 28 21 21 22 26 24 25 24 24 26 35 34 32 28 20 16 18 15 20 20 21 23 23 23 18 17 24 30 22 22 29 33
31 34 35 36 36 36 36 37 38 38 38 38 35 37 35 29 28 26 23 23 25 25 26 26 27 27 31 26 23 20 19 23 22 21 20 20 22 22 23 24 24 26 29 25 19 28 31
32 34 36 36 35 36 36 37 38 39 39 39 36 37 35 31 28 27 27 26 25 24 24 25 26 29 31 27 24 20 20 21 27 31 25 20 22 23 24 22 18 25 25 24 30 30 27
32 34 35 35 36 37 38 39 38 39 39 40 35 38 38 34 32 34 33 32 30 28 28 28 29 31 32 30 25 25 23 24 25 25 33 23 25 26 25 23 26 30 30 34 30 29 29

GFSGBSN_sfc_30mbdewp_102.txt.gz
Dewpoint
47 45 45 45 46 46 46 47 47 48 48 48 48 48 46 45 44 45 46 46 46 44 43 43 44 45 47 31 17 28 37 49 52 43 35 33 25 21 20 24 27 26 26 24 22 22 21
44 45 43 42 42 43 44 44 44 45 47 47 47 47 47 45 45 45 46 46 45 44 43 42 43 45 46 20 19 24 23 26 37 40 35 35 28 29 28 28 26 26 26 24 23 21 21
44 44 43 42 42 42 44 43 42 42 43 45 45 46 47 46 46 46 46 46 44 43 43 42 43 46 42 20 19 21 26 24 24 26 20 22 31 30 29 27 27 26 24 25 24 24 22
44 45 44 43 42 45 44 44 43 43 44 44 43 45 47 48 48 47 46 44 43 43 43 43 44 47 37 39 36 33 31 28 26 20 16 15 17 22 25 28 27 26 26 23 23 23 23
42 42 44 43 42 43 44 45 44 42 42 43 45 44 45 47 48 46 46 44 43 43 42 42 46 45 33 41 38 36 35 28 22 17 11 12 16 20 24 23 23 26 22 23 24 24 23
40 41 41 42 43 42 41 42 44 43 43 42 43 43 44 44 46 46 45 43 41 42 42 42 44 40 38 24 29 31 28 28 22 25 13 10 14 12 23 23 20 22 23 23 23 23 23
41 40 44 43 42 42 42 43 43 44 43 44 43 42 43 44 45 45 43 38 33 32 33 34 37 37 34 34 37 30 26 20 16 20 26 14 10 10 10 22 23 24 24 23 24 23 20
41 41 42 41 40 40 40 40 41 42 42 41 43 42 43 44 44 44 40 33 34 34 31 32 32 32 32 34 31 28 27 19 13 14 21 22 10 10 8 8 16 23 23 22 22 22 20
40 40 39 39 39 40 41 41 42 41 42 41 42 42 43 44 43 39 35 30 35 37 31 28 24 23 24 25 21 17 20 12 7 14 20 26 20 12 8 7 7 11 17 19 19 19 18
42 41 40 40 39 40 41 41 41 42 42 41 41 42 43 43 37 38 32 34 38 38 27 21 23 18 18 19 17 17 12 9 11 4 15 28 29 27 17 8 8 5 8 10 12 14 13
38 38 38 39 39 39 41 40 39 42 41 41 41 42 42 42 39 35 33 38 38 37 13 4 15 18 17 15 17 21 13 10 5 12 14 16 25 28 26 21 11 8 10 13 12 11 15
36 35 38 38 38 38 40 39 41 41 41 41 41 41 42 40 38 39 39 38 37 23 11 12 15 17 14 13 18 23 19 16 15 14 13 14 17 17 22 22 18 11 11 13 14 16 16
34 35 37 37 38 38 39 40 40 40 41 41 40 41 41 41 34 38 40 36 22 15 9 -3 8 13 13 18 17 21 21 17 16 13 12 13 14 14 13 10 13 16 15 14 13 16 16
35 36 35 37 38 38 40 40 40 39 40 41 41 41 40 40 40 40 37 29 16 6 9 9 16 13 11 22 24 25 24 18 19 17 15 11 9 11 11 10 11 13 15 14 11 16 16
36 34 35 38 37 38 39 39 39 39 39 40 40 39 37 38 40 41 33 19 20 14 17 17 15 10 19 27 29 25 29 24 20 18 16 19 12 22 11 11 12 12 16 19 15 25 22
36 35 34 36 37 37 38 38 38 38 38 39 37 35 35 36 40 37 29 20 19 19 17 16 15 13 14 18 19 26 29 33 31 30 31 23 20 24 27 25 13 15 19 16 18 12 13
34 33 36 35 37 38 38 38 38 38 39 39 36 30 31 39 39 32 22 21 20 18 17 18 19 18 15 15 11 26 28 29 32 32 30 24 25 24 26 24 15 11 13 19 20 20 14
35 35 36 36 38 37 37 38 37 38 39 38 33 24 32 40 28 29 26 27 21 19 21 20 20 19 13 11 11 24 28 30 35 34 32 28 24 23 23 29 30 27 19 20 18 20 22
33 36 36 36 37 37 38 39 39 38 40 35 30 29 34 34 19 25 26 23 24 24 25 19 19 18 15 11 10 18 29 29 32 32 32 28 27 20 21 25 29 21 25 28 25 22 22
34 36 36 37 37 39 38 38 39 39 39 36 31 23 27 34 33 28 27 25 23 28 27 24 21 18 13 10 13 13 16 23 23 28 29 29 27 16 16 26 28 18 17 28 29 21 21
33 34 35 37 38 38 38 38 38 39 38 35 29 25 27 20 25 26 29 26 25 24 29 28 22 22 18 8 8 7 12 14 14 23 28 26 21 23 21 20 19 18 13 17 25 28 23
34 35 35 38 38 38 37 36 37 38 39 34 27 28 30 26 26 23 23 22 26 27 27 27 24 23 24 21 21 22 25 23 18 19 23 28 21 24 21 21 22 19 19 16 19 25 24
31 34 36 38 38 37 37 36 37 38 38 34 33 33 29 25 23 21 20 21 21 26 27 26 26 25 23 26 30 29 31 29 28 21 21 27 25 23 19 24 21 6 17 16 13 20 23
32 33 36 38 37 36 36 37 38 38 38 35 33 33 29 21 22 21 21 21 22 24 26 26 26 25 26 33 30 27 29 27 25 24 23 22 25 25 21 19 7 17 20 20 30 32 31
31 34 35 36 36 36 37 37 38 38 38 36 35 32 30 22 24 22 21 21 24 25 26 25 25 27 34 29 22 22 20 19 18 22 21 22 25 22 19 19 19 14 25 24 26 31 33
34 32 31 32 35 37 37 37 38 38 38 37 36 36 34 27 21 23 24 24 24 25 26 26 28 32 35 29 25 20 17 18 15 17 22 20 23 22 23 18 12 21 27 27 26 29 32
33 34 32 32 36 37 37 37 37 38 38 37 35 37 34 28 28 25 21 23 24 24 24 27 27 25 32 27 23 20 17 20 21 23 20 18 21 20 21 21 24 26 26 26 19 25 31
31 32 32 33 36 36 36 36 37 38 38 37 35 37 34 29 27 27 26 25 24 24 25 28 25 28 29 26 25 21 21 20 23 27 28 19 18 20 22 20 14 26 28 23 30 31 31
31 32 32 33 37 37 36 36 37 37 38 39 35 37 37 32 28 33 32 32 32 31 29 29 27 29 32 27 26 27 23 25 27 23 32 25 21 21 22 21 24 30 31 36 32 30 32

GFSGBSN_sfc_30mbdewp_108.txt.gz
Dewpoint
45 46 44 43 42 42 43 44 43 43 44 44 44 45 45 44 43 42 43 44 44 43 44 44 44 44 44 26 5 14 29 28 50 43 33 29 23 24 21 19 22 25 26 24 25 24 24
44 44 43 43 43 44 45 45 44 44 44 43 43 44 45 44 43 42 42 44 45 45 45 45 46 44 42 9 9 20 30 28 25 38 36 32 27 24 20 19 21 24 26 25 25 25 27
45 46 44 44 44 44 44 43 46 45 44 43 43 43 44 43 42 42 43 45 45 44 44 46 47 44 40 6 23 31 32 25 24 22 17 27 34 31 29 27 28 28 26 26 26 26 26
43 43 43 44 43 43 43 43 43 43 44 43 44 44 44 44 44 45 44 43 43 44 46 47 45 42 23 34 37 37 38 35 33 31 23 25 28 26 27 24 19 23 24 23 25 26 26
41 41 43 42 45 44 43 43 43 43 43 42 42 42 43 44 44 45 43 43 43 45 44 44 42 41 17 30 33 36 39 33 32 28 26 23 21 17 19 19 18 22 20 22 24 25 24
41 41 43 44 43 42 41 40 42 43 43 42 42 42 42 43 44 44 43 39 41 40 39 43 44 36 30 26 36 33 33 35 27 22 21 16 14 12 17 16 10 18 21 23 22 24 24
39 42 41 41 41 40 39 40 42 42 42 42 42 42 42 43 43 44 35 33 31 29 33 29 26 30 29 27 28 25 31 26 23 19 18 13 9 7 10 15 14 17 20 20 23 25 23
40 39 41 40 39 39 39 39 41 41 42 42 41 41 42 42 42 40 35 31 33 35 31 33 32 31 31 31 28 23 24 16 17 18 19 20 15 11 7 11 16 18 18 18 23 25 24
41 43 41 41 39 39 39 40 40 40 42 41 42 41 41 41 41 37 35 34 38 37 31 28 27 27 26 27 27 24 22 22 13 13 16 14 17 18 16 11 11 15 17 19 20 22 22
41 39 39 39 39 39 39 39 40 40 41 41 41 41 41 41 34 38 28 38 37 37 24 21 24 21 20 23 20 23 20 16 17 9 15 13 13 16 20 16 11 8 12 14 16 15 9
38 37 36 38 38 38 38 39 40 40 41 40 40 41 41 41 38 35 34 38 35 36 -9 10 15 21 13 17 15 16 15 14 7 6 13 8 15 11 14 16 11 9 7 8 10 11 11
36 36 35 37 37 38 39 40 41 41 40 39 40 41 40 37 37 36 38 38 34 16 2 8 11 16 16 17 22 24 15 12 11 6 5 1 16 15 12 15 16 12 10 11 12 11 8
35 36 34 35 36 38 38 39 40 40 39 40 39 40 39 40 33 37 38 32 10 6 7 11 18 21 19 18 23 27 27 10 9 5 1 -1 4 9 17 15 22 16 13 14 13 11 11
35 38 35 34 38 39 37 38 39 39 39 39 39 39 38 39 39 38 35 20 5 6 10 21 23 20 18 20 26 26 30 24 16 15 10 1 -1 6 10 15 14 21 19 16 10 13 13
35 36 37 35 35 37 37 38 38 38 39 39 39 35 34 35 38 38 24 12 9 13 18 20 20 15 18 17 21 29 24 30 33 32 22 12 5 11 10 11 13 13 15 18 13 21 16
34 35 37 36 35 35 37 38 38 38 38 40 35 32 30 36 39 34 24 17 17 22 20 22 19 18 14 17 22 26 26 30 30 34 35 25 20 24 19 11 12 14 17 14 15 11 11
35 36 33 34 37 36 36 38 37 38 38 41 32 24 31 38 38 30 19 19 20 23 22 25 20 20 20 18 26 25 25 30 28 30 36 30 24 22 26 19 11 10 11 14 16 18 11
35 36 35 36 36 37 38 38 38 39 40 36 32 18 30 35 23 26 22 24 26 26 25 24 25 23 22 26 26 25 25 24 24 29 30 32 27 21 21 32 30 21 13 14 14 15 20
36 36 35 34 38 37 37 38 38 39 39 33 26 26 32 33 19 21 25 26 27 25 24 25 25 23 24 24 22 18 24 21 22 28 30 32 26 22 22 28 30 23 21 27 16 22 18
38 37 36 35 36 38 37 38 39 39 40 33 27 20 23 33 31 26 24 22 21 25 27 26 27 27 26 22 19 17 20 22 27 26 32 33 30 25 21 24 26 28 23 21 22 14 15
40 38 37 36 34 37 37 38 38 38 39 33 27 21 27 20 23 25 22 23 19 20 26 29 25 25 26 24 21 21 23 24 23 28 29 29 25 28 24 25 26 28 32 26 27 25 18
39 38 37 35 34 36 37 38 39 38 38 32 26 25 28 25 25 24 20 16 20 18 22 24 24 24 25 24 23 23 24 24 22 25 23 30 22 27 21 18 16 22 30 31 25 28 31
38 37 36 35 36 37 37 38 38 37 37 32 32 32 26 22 23 21 19 21 19 23 22 25 25 25 24 24 26 28 29 28 27 25 25 24 28 24 16 22 16 21 24 26 25 26 28
37 36 33 35 36 36 37 38 38 38 38 32 32 31 26 20 22 21 21 21 21 21 21 23 27 25 25 28 32 30 30 30 29 28 29 24 22 26 19 22 2 15 29 26 28 30 29
37 36 35 35 32 36 37 38 38 38 38 34 33 31 29 22 23 21 20 21 21 22 24 24 26 27 29 33 25 19 18 20 20 24 23 26 23 20 18 17 15 22 25 26 27 31 33
38 35 36 34 34 36 37 38 38 38 38 36 34 35 32 24 20 23 22 23 22 20 23 23 26 29 31 28 23 17 13 18 18 19 23 24 24 21 21 14 9 14 24 27 31 28 37
38 36 36 34 34 36 36 38 38 38 37 37 35 35 31 26 25 26 24 22 23 24 23 23 26 25 29 25 23 21 18 20 16 19 24 23 21 18 19 18 18 21 25 29 24 25 36
38 36 35 35 35 35 34 35 37 37 37 37 34 36 33 28 25 27 28 26 26 24 21 22 20 24 26 22 22 22 23 23 24 24 23 24 21 18 19 17 12 22 27 26 30 35 36
37 36 35 35 36 35 34 35 37 37 37 37 32 36 37 32 27 30 30 29 26 25 23 27 22 26 28 25 23 24 21 26 21 20 30 23 27 24 21 18 21 30 33 36 37 31 34

GFSGBSN_sfc_30mbdewp_114.txt.gz
Dewpoint
47 46 44 44 43 45 45 45 45 45 45 44 44 44 43 43 44 44 44 44 44 44 45 45 46 46 38 9 -6 17 30 21 29 40 32 21 21 24 22 22 23 24 23 21 23 22 21
46 45 44 44 44 44 43 43 44 45 44 43 43 43 43 43 44 44 44 44 45 44 45 46 47 46 33 1 8 19 16 16 9 6 22 28 19 18 19 21 19 20 22 22 22 21 21
45 44 44 44 44 43 43 44 44 44 43 43 42 42 43 43 44 43 43 45 45 45 47 47 48 42 33 14 20 28 35 34 34 31 19 17 27 24 24 21 20 20 19 20 20 21 21
44 46 46 44 43 44 44 42 43 43 43 43 41 42 43 43 44 42 43 43 44 46 46 48 47 38 19 23 28 35 34 30 27 32 32 28 13 14 12 18 23 19 18 18 20 22 22
43 42 43 44 44 43 42 42 43 43 43 42 41 42 42 43 42 43 41 41 44 45 46 46 40 33 17 28 17 20 22 21 19 26 29 27 23 11 12 13 11 12 9 9 13 22 22
42 42 44 44 43 41 40 42 42 42 42 40 41 42 42 41 41 42 40 38 36 37 35 38 38 17 15 19 23 24 22 21 20 18 18 22 19 10 4 4 1 5 6 8 9 10 16
42 40 42 43 41 39 38 38 40 40 40 40 41 42 41 40 41 39 32 26 17 18 21 20 22 25 22 24 26 23 22 20 17 18 8 11 10 -3 -6 -2 -0 4 4 4 5 10 19
42 42 42 41 40 37 37 38 40 40 38 41 41 41 41 40 41 37 28 27 29 32 24 23 25 26 26 23 15 17 14 15 16 12 6 3 5 1 -5 -5 -2 5 3 3 2 4 12
42 40 41 40 39 38 37 37 39 40 40 40 41 41 40 40 39 33 29 32 35 35 23 14 20 24 17 12 5 16 10 13 14 11 11 4 -4 -1 2 7 3 4 2 1 4 5 7
41 41 42 41 39 39 39 39 39 40 40 39 40 40 40 39 29 32 25 33 34 38 7 2 10 17 10 11 7 18 13 20 17 10 10 8 4 -1 -2 8 6 2 2 6 7 6 4
41 41 39 39 40 39 39 40 40 41 40 40 40 40 40 38 30 22 31 35 35 37 -26 0 6 12 13 13 14 17 18 20 18 16 12 10 7 5 4 -1 7 5 5 9 11 9 8
40 39 37 39 38 38 39 41 41 39 39 39 39 40 39 33 33 34 36 37 33 4 -16 -3 5 11 13 14 15 16 12 21 23 20 16 13 13 11 8 6 2 9 12 11 10 7 6
39 38 37 38 37 38 38 40 40 39 39 39 40 39 35 37 30 37 37 25 -1 -17 -3 -1 8 13 14 10 12 10 17 22 26 23 17 17 7 8 10 8 6 6 9 -0 0 2 -1
38 37 36 36 36 38 38 38 38 38 39 39 40 36 37 36 38 39 32 15 -1 -0 3 10 13 14 11 10 12 16 16 23 18 24 23 19 11 8 8 8 2 5 6 -1 -6 -4 -1
37 36 38 36 38 40 37 38 38 38 38 40 37 34 34 38 39 38 22 8 -2 7 14 17 15 9 6 11 14 17 17 24 24 28 23 21 20 13 11 7 4 2 4 4 -5 -2 3
39 36 37 39 36 37 37 38 38 38 38 39 31 33 35 39 41 33 21 10 11 16 18 18 14 15 11 12 15 18 21 22 21 21 30 28 20 18 20 5 5 2 5 0 -3 -3 -5
38 37 36 39 36 37 36 38 37 38 40 38 30 27 36 41 39 28 15 12 18 21 22 20 17 17 15 16 18 19 23 23 19 20 20 30 28 20 18 5 -1 7 12 6 -1 2 -4
40 38 37 36 36 37 36 38 38 39 40 35 29 25 37 39 23 23 16 20 24 21 23 23 23 22 21 21 19 17 21 20 20 20 22 31 28 23 20 27 24 5 10 10 6 3 3
41 38 39 36 36 35 37 39 38 40 39 33 25 24 35 35 19 16 21 22 23 19 18 23 22 24 24 20 19 16 16 18 20 22 26 27 26 17 17 24 32 28 8 13 14 8 6
41 39 39 36 36 37 38 38 38 40 39 33 27 23 26 33 28 22 24 20 17 17 18 23 22 24 20 18 18 16 17 19 21 21 26 25 28 25 20 25 28 28 30 25 9 10 9
40 40 39 38 35 37 38 38 38 39 39 32 29 23 25 24 26 22 22 19 17 16 17 17 21 19 19 19 17 13 17 19 19 20 22 23 19 25 24 24 18 26 30 31 25 13 10
41 41 40 39 37 36 39 38 39 40 38 32 27 23 25 20 24 23 21 16 14 16 17 15 18 18 17 19 19 18 19 19 19 20 22 24 19 21 17 23 20 18 27 26 27 27 18
41 41 41 39 37 37 38 39 39 40 37 30 32 31 25 21 19 18 15 13 15 18 16 20 21 16 17 19 22 22 24 25 24 24 25 25 20 16 14 16 22 20 26 24 23 25 27
42 41 43 41 40 39 37 39 39 39 37 32 28 29 23 16 15 15 16 17 17 17 16 17 18 17 18 23 24 25 23 24 26 25 27 26 22 17 15 14 16 20 27 25 24 25 29
41 42 43 40 40 38 38 39 39 39 37 31 33 29 23 18 14 15 17 18 16 17 17 17 17 22 24 26 22 18 13 14 15 21 23 27 24 17 14 14 10 24 21 27 27 27 34
41 42 42 40 39 38 39 39 39 39 39 33 32 34 27 20 15 16 15 16 15 14 16 18 22 23 29 24 23 17 11 14 12 15 24 25 27 22 14 11 10 20 20 23 29 30 36
41 41 41 40 38 39 39 39 39 38 39 35 31 35 28 23 19 22 18 16 21 19 16 17 22 19 28 24 19 16 19 18 17 17 17 20 22 19 16 12 10 23 26 28 26 30 38
41 41 41 39 38 39 38 38 38 38 39 37 33 36 31 26 21 24 23 19 18 17 15 19 18 25 21 21 19 16 17 16 20 20 22 23 21 20 19 16 12 26 27 28 31 36 41
41 42 40 38 39 39 37 38 38 38 38 37 32 35 36 32 25 30 29 26 23 22 21 23 20 22 22 21 17 18 17 18 17 18 27 23 27 25 22 18 24 30 35 39 39 38 40

GFSGBSN_sfc_30mbdewp_117.txt.gz
Dewpoint
49 47 46 44 44 44 45 45 45 45 45 44 43 43 43 44 44 44 44 45 44 44 46 46 47 48 43 16 1 10 19 20 5 9 21 20 13 16 21 21 20 20 21 23 23 22 22
48 47 45 44 44 46 44 43 44 44 44 43 43 42 43 44 44 44 43 44 45 44 46 48 48 48 36 8 9 17 26 24 19 19 8 -1 18 14 12 14 17 21 22 22 23 24 23
47 46 45 44 44 43 42 44 44 44 43 43 43 41 43 44 44 43 42 44 44 45 47 47 47 43 30 20 23 31 26 22 30 24 27 26 7 16 17 14 17 17 18 19 20 21 21
46 45 44 44 43 43 44 43 43 43 43 43 42 42 43 43 42 42 43 44 43 46 46 48 48 36 19 20 21 19 19 17 14 15 21 29 28 13 14 13 10 10 17 18 19 20 21
46 46 46 45 43 44 42 43 43 42 43 41 41 42 43 42 42 43 43 43 43 45 46 46 44 29 17 27 17 20 17 18 18 17 14 25 24 20 11 9 6 2 -0 5 11 14 18
44 44 44 44 44 43 41 43 42 41 41 40 41 42 42 41 42 43 40 41 39 40 40 34 32 14 17 17 19 21 15 12 15 18 15 13 19 13 7 2 -3 -5 1 1 5 9 10
44 43 43 44 43 41 40 40 41 40 40 40 41 42 41 41 41 40 36 27 16 27 15 14 17 19 18 13 19 8 13 6 14 11 9 9 4 5 -2 -3 -3 -4 -3 -2 6 6 8
44 43 45 44 41 40 38 39 40 40 39 41 41 41 41 40 40 37 29 21 23 28 17 18 22 23 21 13 3 -1 9 8 7 7 8 7 2 -1 -5 -0 -5 -10 -7 -1 -3 -2 -0
44 42 42 42 40 38 38 38 40 40 40 40 40 40 40 40 39 34 27 27 31 31 23 9 17 15 11 9 6 8 10 12 10 10 8 4 3 3 2 -2 -4 -4 -8 -7 -5 -4 -0
45 43 42 41 39 39 38 39 39 40 41 40 40 40 40 40 32 26 25 28 30 36 19 4 6 13 7 8 5 9 16 11 12 11 9 9 9 5 2 -1 -3 -3 -3 -2 -6 -4 -4
43 41 42 41 40 40 39 39 40 41 40 40 40 40 40 39 27 19 27 31 32 37 2 1 -0 6 6 6 8 8 12 9 12 16 17 14 11 7 4 3 0 -7 -3 2 -0 -1 1
44 43 41 40 40 39 39 40 41 40 39 39 39 40 38 34 31 30 32 34 33 23 -5 -3 0 4 4 6 5 8 8 15 20 17 14 12 14 15 9 8 7 6 0 1 6 3 3
43 41 39 39 39 38 39 41 40 39 39 39 39 40 36 33 29 34 35 27 13 -6 -5 -2 4 6 7 5 5 6 9 7 14 12 11 13 12 11 12 9 8 7 4 -2 4 3 2
42 40 38 39 38 39 38 39 39 38 38 39 40 37 36 33 35 37 32 19 9 -2 -2 7 8 8 3 4 7 8 8 9 13 19 18 11 13 12 22 19 7 5 4 0 0 -1 -2
41 39 37 39 37 38 39 38 38 38 38 39 38 35 33 36 39 36 24 18 -0 4 12 13 9 3 2 6 8 8 11 15 15 18 23 19 15 19 18 18 18 3 2 2 3 -0 -3
41 38 38 37 37 40 38 38 38 38 38 40 31 30 32 38 39 34 21 8 7 12 13 15 10 9 7 7 10 10 14 19 16 15 17 25 20 19 19 29 23 6 3 1 2 1 -3
40 38 37 40 38 38 37 38 38 38 39 39 30 26 34 39 38 24 22 9 12 17 18 16 12 11 11 11 14 12 16 20 15 13 17 22 28 18 25 25 13 4 2 -2 2 2 -2
41 40 38 40 38 38 37 37 38 38 40 36 26 24 34 36 23 18 13 14 20 16 20 18 19 17 15 16 14 12 13 13 14 16 16 29 26 20 19 26 30 24 2 -0 -1 1 -2
42 40 39 39 38 38 37 37 39 39 39 29 22 24 33 33 24 13 18 15 16 16 15 16 16 17 19 16 11 12 12 12 16 16 17 23 21 18 13 24 27 25 14 3 3 1 -3
43 41 40 39 38 37 37 39 38 39 40 35 23 24 25 28 24 23 20 15 14 16 15 15 16 17 16 13 13 12 11 12 16 16 23 24 22 22 19 24 23 27 27 15 10 10 1
43 41 40 40 38 37 39 38 38 40 40 34 28 25 23 24 25 18 19 15 14 13 15 17 12 15 15 12 11 10 11 14 14 19 18 20 19 19 16 14 19 23 29 21 21 23 13
42 42 40 40 39 38 39 39 38 40 40 31 29 20 23 19 21 20 20 13 12 11 14 12 12 11 13 13 12 12 15 16 15 18 19 23 19 17 13 19 20 25 31 29 20 16 14
42 41 40 40 39 38 39 40 40 41 38 26 27 26 22 18 19 18 16 15 12 12 14 13 13 14 14 13 16 20 20 19 20 21 22 24 22 19 11 14 23 26 27 27 29 30 20
42 42 41 40 40 39 39 40 40 41 39 28 26 23 21 19 13 13 13 14 12 14 15 15 15 14 14 17 20 19 18 17 17 18 22 23 23 18 13 16 19 26 22 30 27 26 30
42 42 42 41 40 38 39 40 40 40 40 33 28 25 21 19 12 12 14 15 15 16 15 15 15 16 21 20 19 14 9 9 14 17 17 23 24 20 13 12 19 23 21 20 22 26 34
42 42 42 42 42 40 40 39 39 39 39 33 30 28 24 22 15 12 13 14 13 11 11 14 18 21 22 21 18 14 8 13 9 12 20 22 26 22 15 10 13 19 21 22 24 27 35
41 42 41 43 42 40 40 39 39 39 39 34 31 33 27 24 20 18 14 14 15 14 13 13 16 18 22 21 17 13 12 16 15 15 16 18 21 19 15 16 11 23 25 28 26 29 37
42 41 42 43 41 41 39 39 39 39 39 36 34 34 28 25 21 21 20 19 16 16 12 17 17 22 19 18 16 16 14 14 15 18 21 19 22 24 19 15 15 32 28 29 34 37 37
41 42 42 43 41 40 39 40 39 39 39 38 35 34 31 32 28 31 27 24 21 19 21 22 19 20 21 20 22 19 19 17 17 17 27 23 25 24 24 23 33 34 33 37 36 37 37

GFSGBSN_sfc_30mbdewp_120.txt.gz
Dewpoint
49 49 50 47 45 44 45 44 44 44 45 44 44 43 44 44 44 44 44 44 43 43 44 47 49 49 45 29 5 12 26 27 24 4 1 -1 3 13 9 9 17 19 18 19 21 23 24
50 50 48 46 45 44 46 45 45 45 44 44 44 42 43 44 44 43 43 44 44 43 45 48 48 49 42 18 13 28 24 18 24 22 21 20 11 0 7 11 8 11 14 17 20 22 22
51 48 47 46 45 46 45 43 43 44 43 43 43 43 43 44 43 43 43 43 44 44 47 47 48 44 33 18 21 17 17 15 14 16 15 16 25 22 4 7 12 12 13 14 13 18 21
50 48 47 45 45 44 43 44 45 43 43 43 42 43 43 43 43 43 43 44 44 46 47 46 48 43 24 19 22 16 15 14 14 14 14 12 19 22 17 10 8 8 5 4 5 12 18
49 48 46 45 45 43 44 43 43 42 43 42 41 42 43 42 43 44 43 44 44 45 45 44 44 33 19 24 16 16 16 9 7 14 17 9 19 18 14 9 4 1 1 -4 -4 2 1
49 47 46 45 45 44 43 43 43 42 42 41 42 42 42 42 42 42 43 43 41 42 43 35 30 19 18 15 9 16 9 11 6 11 8 13 14 12 11 6 2 -5 -3 1 -0 1 7
48 48 48 47 45 44 42 42 42 40 41 40 42 42 41 41 41 42 41 32 24 31 15 13 13 14 13 15 6 2 6 8 7 6 3 6 5 4 0 3 3 0 -1 -3 -2 0 2
48 47 47 46 45 43 41 41 41 39 40 41 41 40 41 41 41 42 37 20 24 27 19 16 20 20 18 12 5 5 8 10 9 7 8 7 4 2 2 2 -2 -5 -5 -2 -3 -5 -3
47 46 46 46 45 42 40 40 40 39 40 41 40 40 40 41 41 37 26 25 28 30 27 12 13 11 4 6 5 4 13 11 7 7 7 8 9 9 6 6 3 2 -0 -2 -2 -3 -5
46 45 46 46 44 41 40 39 39 39 40 40 40 40 40 41 36 27 28 26 30 35 24 9 13 15 4 3 5 6 13 8 6 8 14 14 13 13 13 10 7 4 3 -0 -3 -3 -7
46 46 46 45 44 41 40 39 40 40 41 39 39 39 40 40 38 23 27 30 31 38 11 3 1 3 2 2 4 3 6 7 5 13 13 11 9 7 7 6 7 10 9 4 -2 -4 0
46 45 45 44 42 41 40 39 40 41 40 39 39 40 39 36 37 30 32 34 33 29 11 2 -2 1 1 4 4 6 6 8 7 14 13 9 10 10 9 13 19 19 14 7 7 3 -2
45 44 44 43 42 41 40 40 41 40 39 38 39 39 38 35 33 33 36 34 21 15 -5 -3 1 2 3 3 3 6 5 6 9 19 16 10 9 10 14 15 17 19 18 5 6 4 -1
43 43 43 42 41 40 39 42 41 39 38 38 39 39 37 32 36 37 36 27 17 -0 -6 7 3 3 3 1 5 5 7 7 10 18 13 10 11 12 15 17 21 28 21 9 5 3 -2
43 42 41 41 40 39 38 39 39 38 37 37 39 37 37 38 38 37 32 24 8 4 10 8 5 2 0 3 6 7 8 12 14 13 18 17 11 15 17 17 19 25 13 11 7 7 4
42 41 39 39 39 37 40 39 38 38 38 38 35 32 32 38 38 38 28 20 7 8 8 10 7 6 4 6 8 9 10 15 14 16 20 14 15 16 16 22 24 26 22 13 7 3 2
41 40 38 39 39 39 40 38 38 38 38 39 35 28 37 37 37 33 26 14 10 13 12 12 9 9 9 9 10 9 10 13 16 11 13 16 22 17 18 28 28 29 28 18 11 3 1
42 41 40 40 38 40 38 37 38 38 39 36 32 25 36 35 29 25 20 12 16 13 17 15 16 15 13 12 11 10 9 9 10 17 12 17 19 17 16 28 26 21 25 26 5 3 4
42 41 40 39 40 39 38 38 38 38 39 35 25 26 34 34 28 21 17 15 12 12 12 13 13 13 14 12 11 9 8 8 15 14 14 19 15 18 12 16 18 17 18 22 25 21 6
42 42 41 39 40 38 39 38 39 38 40 37 28 25 26 25 25 24 19 15 13 13 13 13 12 13 12 14 13 9 7 8 10 13 19 19 20 20 18 20 20 16 22 28 28 21 9
43 43 41 40 41 39 39 38 39 38 40 36 31 28 24 25 26 22 18 13 12 12 13 13 13 11 10 12 13 7 8 8 12 14 15 17 18 21 18 16 14 20 19 29 25 21 24
43 43 42 41 40 40 38 39 39 39 40 34 30 24 22 21 22 21 19 15 12 11 11 13 10 10 10 9 10 8 10 12 15 15 15 19 20 21 17 16 13 14 27 33 25 20 20
43 43 42 41 40 40 39 40 40 40 39 26 28 26 27 20 18 19 17 16 12 12 11 13 11 10 10 11 12 14 17 17 16 15 17 20 21 20 18 14 16 22 29 28 32 32 32
43 43 42 42 41 40 39 41 41 41 39 31 29 25 19 21 15 14 14 15 14 12 14 13 14 13 14 15 18 18 16 15 15 14 17 17 20 21 20 18 16 29 25 21 25 33 35
43 43 42 41 41 40 40 40 41 41 42 34 33 27 22 19 17 12 13 14 14 14 14 14 14 15 18 19 16 13 13 10 14 19 16 17 20 22 17 13 14 26 24 23 23 27 34
43 42 42 42 41 40 39 40 41 41 40 36 34 31 27 22 19 14 12 14 13 12 12 14 15 18 20 19 17 13 10 10 10 12 20 21 20 25 21 18 11 27 24 29 26 27 36
43 43 42 42 42 41 39 39 41 41 39 36 33 33 30 26 22 19 15 14 15 13 11 14 15 17 19 19 18 15 12 18 15 17 16 18 21 21 21 18 22 30 29 29 20 26 36
42 43 42 42 42 42 41 40 40 40 39 37 33 35 31 27 22 24 19 20 18 17 14 21 17 17 19 17 16 15 18 18 16 17 21 20 20 20 22 17 18 32 31 25 31 35 35
40 42 42 42 42 43 40 41 40 40 39 39 34 37 34 31 29 31 30 29 24 20 21 23 19 23 19 19 23 22 19 18 15 14 26 23 28 26 27 25 31 30 30 32 34 33 33

GFSGBSN_sfc_30mbdewp_123.txt.gz
Dewpoint
52 51 50 50 50 48 46 45 44 45 45 45 44 44 43 44 44 44 44 44 44 44 44 47 49 49 46 37 9 22 29 28 34 21 18 19 15 2 1 7 8 10 12 18 19 19 19
52 51 50 51 48 46 45 45 46 46 45 44 44 44 44 44 44 43 43 44 44 44 46 48 48 49 45 21 16 17 17 16 14 13 14 16 16 23 21 1 3 11 11 10 11 12 13
52 51 52 50 47 45 45 46 44 43 44 43 44 43 44 44 44 43 43 44 45 45 47 48 48 45 38 17 19 18 16 15 15 14 13 13 12 16 23 19 13 10 6 9 9 15 15
52 51 51 49 47 46 47 44 44 45 44 43 43 42 43 44 43 43 44 45 45 45 46 47 47 46 27 19 22 15 15 15 10 9 12 16 16 13 21 21 17 11 5 3 4 6 6
52 52 50 48 47 47 45 44 45 43 42 43 41 42 43 43 44 44 44 45 45 46 45 45 42 42 21 23 9 13 16 11 11 10 14 14 11 13 18 15 11 8 1 1 2 3 2
52 52 50 48 46 45 45 45 44 43 42 42 41 42 42 42 43 43 44 44 44 39 40 39 37 28 18 15 10 8 12 8 9 11 9 11 15 18 16 12 7 5 3 2 0 -0 2
52 52 50 48 47 46 46 44 44 42 41 41 41 42 41 41 42 43 42 37 25 32 32 13 14 13 14 17 11 5 10 9 11 12 8 9 7 6 6 8 8 6 5 3 3 2 -0
52 51 49 47 47 47 46 44 44 41 40 40 41 41 41 41 41 42 40 25 26 28 22 18 19 20 19 14 6 7 15 11 8 7 7 8 8 10 13 12 11 10 7 5 5 3 0
51 50 48 48 48 47 46 45 43 41 40 41 40 40 40 41 42 39 26 26 29 33 28 17 13 10 4 5 3 6 11 13 7 5 7 11 14 12 10 8 10 12 10 9 8 7 5
50 49 49 48 46 46 45 43 42 41 40 41 40 40 40 41 39 34 28 29 32 36 29 10 15 13 6 3 5 4 12 6 6 5 9 13 14 10 9 8 8 6 12 14 13 14 5
49 48 46 45 46 46 43 42 42 40 40 41 40 39 40 41 36 30 30 32 31 38 16 11 1 6 5 1 3 4 6 6 6 6 10 13 14 11 9 9 12 15 17 16 17 16 13
47 45 45 48 46 44 43 42 41 41 42 40 39 39 39 39 40 35 35 36 35 29 13 1 1 3 1 4 4 6 7 8 9 15 16 17 16 11 10 12 14 15 21 20 18 15 11
46 45 44 46 45 43 42 41 40 41 40 38 39 39 39 37 35 37 38 36 24 19 4 -1 -0 2 2 4 2 6 6 9 11 15 15 16 14 15 13 12 14 17 23 19 13 10 7
46 46 46 45 44 42 41 40 41 41 39 38 38 40 38 37 39 39 39 31 15 5 2 7 3 2 2 2 5 7 9 9 15 14 17 17 16 14 13 13 15 17 18 18 14 8 8
45 45 45 44 43 41 40 42 41 39 37 37 38 38 39 40 39 40 36 24 18 8 12 7 5 3 3 6 7 10 10 14 14 15 16 16 14 14 14 16 24 28 27 28 25 21 14
44 44 43 43 41 39 39 39 39 38 37 38 37 37 38 39 39 39 33 25 11 9 8 8 7 5 4 8 9 11 11 14 14 16 19 18 13 12 17 18 23 24 31 25 21 11 7
43 42 42 41 40 39 39 39 38 37 38 38 35 33 38 38 39 36 26 23 11 12 11 9 10 9 10 10 11 11 12 13 15 17 18 17 21 16 17 14 15 22 25 28 30 18 8
43 42 40 41 40 38 41 39 38 37 38 35 35 29 37 37 31 31 25 21 14 15 16 14 15 15 13 14 13 12 11 11 18 17 15 20 18 15 13 15 18 23 19 26 23 22 21
43 41 41 40 40 41 40 38 38 37 39 37 30 34 36 36 24 26 22 16 12 9 15 14 15 15 14 13 12 14 11 13 11 15 16 17 16 17 13 13 21 20 20 17 27 28 20
43 42 41 41 40 39 38 38 38 38 40 37 35 26 29 27 26 25 25 17 13 13 13 13 12 12 13 13 14 14 14 12 15 16 19 21 21 22 18 18 20 20 19 18 24 26 19
43 42 41 41 41 40 40 39 38 38 40 36 35 28 28 25 26 26 23 18 15 15 13 12 13 12 13 12 12 13 13 13 14 16 17 17 15 17 20 21 20 19 19 30 29 29 23
42 42 42 41 42 40 40 39 39 38 40 36 27 27 27 21 25 25 24 18 17 13 13 13 13 12 13 11 13 12 14 15 16 16 17 17 16 19 20 21 20 18 30 31 32 31 31
42 42 42 42 42 40 40 40 41 39 39 31 30 27 27 25 18 21 21 18 14 13 14 13 13 11 12 14 16 18 19 19 18 17 17 17 16 18 18 21 20 24 29 29 31 31 31
42 42 42 42 41 41 40 41 41 40 40 35 35 32 23 19 21 18 17 16 17 14 13 15 17 15 16 20 20 20 20 19 18 17 18 17 17 19 19 20 14 27 25 26 30 31 32
42 42 42 42 41 41 40 42 41 41 40 38 35 34 28 22 20 18 14 15 14 15 14 14 15 16 21 20 19 17 15 15 14 24 27 29 27 23 19 20 18 25 24 27 27 29 33
43 43 42 42 42 41 41 42 42 42 40 40 36 37 30 25 22 22 18 14 14 14 15 17 19 21 20 20 19 16 14 14 14 18 24 22 28 22 21 20 18 23 28 29 25 25 33
42 42 42 42 42 41 41 41 42 42 40 39 35 36 32 27 24 24 19 19 20 16 13 16 21 19 21 19 19 17 16 17 17 18 19 20 22 21 20 19 24 27 29 28 18 22 32
42 42 42 42 42 42 41 40 40 42 40 38 34 37 33 30 28 30 31 27 24 20 18 24 21 25 21 19 19 18 18 20 18 21 23 24 22 20 22 19 14 29 26 22 27 32 32
42 43 43 43 42 42 40 40 39 41 40 39 34 37 37 32 31 32 31 30 30 28 25 24 24 23 22 20 25 23 21 19 17 14 25 21 26 22 24 24 30 30 29 31 31 30 31

GFSGBSN_sfc_30mbdewp_129.txt.gz
Dewpoint
56 56 55 55 54 53 53 52 51 49 46 45 47 46 45 44 45 45 45 44 44 45 46 47 48 49 46 35 10 18 22 19 18 15 14 13 13 15 16 20 17 7 9 14 14 9 8
56 56 55 55 54 54 53 52 51 49 47 46 46 45 45 44 45 45 44 43 45 46 46 47 48 49 42 21 15 18 15 16 15 14 10 11 11 11 11 19 15 16 15 14 10 7 3
57 56 55 54 54 54 53 52 51 49 47 47 45 44 44 43 45 44 43 44 45 45 46 47 48 46 40 23 18 19 15 15 16 11 8 10 13 12 13 8 20 18 16 13 5 2 4
57 56 55 54 54 53 53 52 49 48 48 46 45 44 43 44 44 44 43 44 45 45 47 47 46 45 33 22 23 9 14 13 16 12 10 11 14 14 12 17 17 13 10 6 7 7 5
57 56 56 55 54 53 52 51 49 48 46 46 44 43 43 44 43 43 43 44 45 46 47 46 41 41 26 22 11 10 12 10 12 13 13 15 13 13 18 13 9 9 8 9 9 10 11
57 56 56 55 54 53 52 50 49 47 47 45 43 42 43 42 43 43 43 44 41 41 40 38 37 30 27 16 15 13 11 11 11 12 9 12 13 12 11 11 6 8 8 9 8 9 9
58 57 56 55 54 53 52 49 48 47 46 44 42 42 42 41 42 43 42 32 21 28 29 23 21 20 15 16 13 9 15 12 10 8 6 10 9 10 10 11 11 10 9 8 7 8 9
53 57 57 55 54 53 51 50 48 47 45 43 41 41 40 41 41 42 41 24 26 26 12 20 20 18 20 14 6 6 15 10 7 5 7 7 10 14 12 12 11 10 9 7 9 12 15
49 54 57 56 54 53 51 49 48 46 44 42 41 40 40 40 41 36 26 26 33 31 13 26 19 19 15 13 4 5 12 12 5 5 6 7 14 15 12 10 9 9 8 9 13 13 13
49 50 56 56 54 53 51 49 48 46 44 42 41 40 40 40 31 36 27 30 36 36 10 12 15 13 6 6 3 5 12 5 6 5 10 13 17 12 12 10 12 10 12 13 12 12 11
49 48 53 56 54 52 50 49 47 45 43 42 41 41 40 40 35 32 30 34 36 37 -13 14 14 12 5 4 5 6 11 7 9 10 11 11 13 12 12 12 12 10 13 14 14 14 14
48 50 54 55 53 51 49 48 47 44 43 42 41 40 40 40 38 35 36 37 35 23 -6 10 4 7 3 4 4 9 11 14 19 16 16 13 16 15 14 14 13 15 15 18 19 18 15
53 52 55 54 52 49 48 47 46 44 43 43 40 39 39 39 34 38 38 36 23 12 8 0 -0 5 2 4 6 8 12 14 10 2 10 16 15 16 15 13 14 15 14 16 13 11 9
54 53 54 52 50 49 48 47 46 44 43 43 40 39 38 37 39 39 37 31 11 4 7 5 4 3 0 5 9 11 10 11 16 15 14 13 8 13 15 12 11 15 24 18 11 10 13
53 54 53 50 49 47 47 46 45 44 43 39 39 35 35 37 39 39 34 22 -1 14 9 4 2 1 5 10 10 11 11 12 12 16 11 11 13 15 13 14 15 17 17 18 21 21 19
54 52 50 48 47 46 46 45 44 43 41 39 34 36 36 40 40 38 32 16 17 12 9 8 2 7 7 9 10 11 10 15 13 18 18 15 11 13 15 17 20 19 18 18 24 14 11
50 48 47 46 46 45 44 43 43 41 38 38 37 34 38 40 40 35 23 20 13 15 13 10 11 11 11 10 12 10 11 15 15 17 18 16 15 14 13 12 11 15 16 18 22 23 17
43 44 45 44 43 43 43 42 40 38 39 38 36 30 38 39 32 31 25 28 14 15 17 16 16 13 13 15 12 12 13 11 16 17 14 17 16 12 10 13 19 18 13 18 21 17 19
42 42 42 42 42 43 42 41 39 39 38 35 34 34 37 36 20 26 27 15 16 17 15 16 16 17 16 14 11 13 13 17 15 14 15 17 14 9 6 8 12 13 14 18 29 28 22
42 42 42 42 42 41 41 39 40 39 39 37 32 26 27 31 30 26 23 13 12 17 14 16 14 14 13 12 13 15 15 17 17 15 21 21 17 9 6 7 14 15 14 22 28 22 22
42 41 41 41 41 40 38 38 38 38 40 36 33 27 22 18 24 26 24 17 13 12 13 13 11 12 12 10 12 13 14 14 15 18 17 15 7 17 17 16 14 14 18 26 26 27 22
41 41 40 42 42 40 39 38 38 40 39 34 29 28 29 24 24 25 23 20 15 16 12 12 14 14 14 13 12 12 14 14 13 15 15 16 5 15 13 16 16 17 26 24 27 28 23
40 40 40 41 41 39 38 38 38 40 36 31 32 30 25 25 23 20 22 18 17 15 18 16 15 13 14 15 16 16 17 16 14 15 14 14 16 15 15 16 18 22 23 21 24 27 26
41 41 41 40 40 40 38 40 38 39 38 35 35 29 24 20 22 20 22 19 16 16 15 17 15 13 18 20 19 19 20 20 19 18 17 15 17 17 17 19 11 23 27 22 23 28 27
41 41 42 41 41 41 41 41 40 40 38 35 35 30 25 21 21 20 19 19 18 18 15 14 15 17 21 20 14 14 14 14 21 23 20 19 21 22 19 19 19 23 22 22 23 23 26
41 41 41 42 42 42 42 41 40 40 37 35 36 35 27 22 22 25 19 17 14 14 14 16 23 23 21 19 19 13 7 13 15 19 25 27 27 24 22 17 13 19 22 26 25 19 27
42 41 41 40 42 42 42 41 40 40 37 35 35 36 28 24 28 27 19 19 19 17 15 23 22 19 22 18 16 15 14 19 17 15 19 22 21 20 21 19 21 25 25 25 20 17 28
42 42 41 40 42 42 42 42 41 40 36 35 35 37 29 27 30 30 30 24 22 19 16 22 21 22 20 17 18 19 19 20 18 22 20 18 18 18 19 18 11 27 24 19 25 27 29
42 41 42 42 42 42 43 43 42 41 36 34 33 38 36 28 29 32 29 29 28 25 23 25 22 23 24 23 24 22 20 20 18 13 23 19 21 16 20 18 28 28 26 27 29 28 29

GFSGBSN_sfc_30mbdewp_135.txt.gz
Dewpoint
59 58 58 57 57 56 56 55 54 54 53 52 49 47 47 46 45 44 45 46 44 45 46 47 48 49 45 18 17 17 20 18 15 13 11 14 14 17 13 16 16 14 11 14 16 12 9
60 59 58 58 57 57 56 56 55 54 53 52 49 47 47 47 45 44 45 45 45 45 46 47 48 49 37 -15 16 18 14 15 13 10 9 10 11 12 13 15 9 15 16 17 12 10 9
56 58 58 58 57 57 56 56 55 54 53 52 50 48 48 46 45 44 45 44 44 45 46 48 48 46 32 -4 18 18 15 15 15 12 9 10 13 10 13 8 18 19 12 9 7 11 10
52 54 55 58 58 57 56 56 55 54 54 53 51 49 48 46 44 44 44 44 44 45 47 48 47 44 15 33 23 8 12 11 14 13 11 12 15 15 16 17 13 10 10 1 9 11 10
51 50 51 53 57 57 56 56 55 55 54 53 51 49 48 46 44 44 43 43 45 46 47 45 43 38 10 27 13 11 12 10 12 14 17 17 19 16 14 10 6 10 2 7 8 11 9
48 49 50 51 51 54 57 56 55 55 54 53 51 50 48 46 44 43 42 43 44 43 43 41 37 24 21 17 14 12 12 13 10 11 10 13 14 12 12 5 -10 7 8 8 6 7 7
45 47 48 49 50 51 52 56 56 55 54 53 51 49 47 45 43 43 41 30 20 20 33 9 17 11 17 15 13 11 14 10 10 10 6 14 9 8 12 12 11 10 9 5 5 8 9
45 46 47 48 50 50 51 52 56 55 54 53 52 49 47 45 43 42 41 12 15 20 7 17 23 23 18 11 6 8 14 5 7 5 9 12 11 13 12 11 8 6 4 4 9 10 9
46 46 47 47 49 50 50 50 52 55 54 53 52 50 47 44 43 41 28 20 31 26 -0 -1 20 19 16 12 5 6 11 7 7 6 7 9 14 13 11 11 7 7 6 8 8 11 12
47 47 47 48 48 49 49 49 49 53 54 53 51 49 46 42 36 30 24 31 33 24 -14 -6 17 17 16 9 3 7 11 7 7 9 15 15 16 11 11 9 12 5 10 10 11 10 5
46 47 48 48 49 49 48 48 48 49 54 52 50 48 45 41 32 25 25 35 38 25 2 11 15 11 9 2 6 10 15 10 7 9 9 11 14 11 9 9 13 7 12 13 13 12 14
46 46 46 47 48 47 47 47 47 48 51 52 50 47 43 41 40 34 32 37 34 -4 -8 12 9 6 5 4 7 13 15 18 19 13 14 14 16 14 11 14 14 14 15 16 18 18 11
46 46 46 46 47 47 47 46 47 47 49 52 48 45 42 42 37 39 37 34 1 -8 8 7 8 5 4 4 8 11 12 12 8 5 6 13 15 17 16 10 13 16 16 2 -1 3 -5
46 46 46 46 46 46 46 45 45 47 50 50 47 43 41 43 44 43 39 24 3 4 9 5 7 5 3 7 11 12 13 10 14 12 13 5 3 13 15 12 10 18 20 9 -3 3 4
45 45 45 45 43 44 44 45 44 46 50 48 45 42 40 40 44 42 30 12 14 9 8 5 5 2 6 11 11 11 11 12 15 16 9 11 8 16 14 15 15 14 13 19 16 17 15
44 44 46 44 42 43 44 45 45 47 49 46 39 37 38 42 44 38 29 15 5 15 8 5 2 3 6 9 10 11 12 16 15 18 19 14 4 13 14 17 16 17 17 14 17 12 9
43 44 45 41 42 45 48 49 47 49 47 42 36 31 38 44 43 35 24 15 20 14 10 6 9 10 11 10 12 11 14 16 18 18 17 18 10 12 14 11 10 17 15 17 19 18 13
43 43 43 40 47 51 50 50 49 48 43 40 35 30 38 43 30 31 26 20 21 17 17 15 15 14 13 13 12 12 14 14 19 18 13 19 16 8 7 12 15 16 15 20 16 16 19
42 43 42 42 52 52 51 49 48 44 42 38 33 31 38 36 25 26 28 21 20 17 15 16 15 17 18 14 11 15 14 18 17 15 17 20 14 1 3 9 13 15 13 15 18 20 18
42 43 41 40 52 52 50 48 44 42 41 37 33 27 32 34 33 28 24 20 17 19 18 18 18 16 14 14 18 16 15 17 16 20 23 18 15 5 -12 -6 8 9 13 14 24 20 19
41 41 41 38 45 46 44 43 42 42 40 37 33 29 31 26 29 26 24 21 15 14 15 15 15 14 13 14 16 16 16 16 19 23 17 15 9 15 12 9 10 10 12 16 24 21 21
41 40 40 40 38 42 43 44 43 43 42 36 30 29 29 27 29 25 25 20 13 17 15 15 14 16 15 12 13 14 14 14 15 17 13 16 -1 12 10 11 12 13 17 23 22 24 24
42 40 39 39 40 39 41 41 41 41 39 35 33 30 28 29 30 27 25 19 16 17 19 18 18 17 15 16 18 19 16 15 16 14 13 10 10 15 10 17 18 18 21 21 21 24 25
42 41 40 40 39 40 40 40 41 41 39 35 34 31 27 26 28 25 22 18 17 17 16 20 17 14 20 21 20 19 19 17 16 15 15 15 16 16 15 20 12 19 22 22 21 24 26
41 41 40 41 40 40 41 40 40 40 39 35 35 27 25 26 24 22 19 21 21 19 18 17 19 21 22 17 11 13 16 19 20 18 16 19 18 20 17 18 19 26 26 19 19 22 25
41 41 40 38 37 38 40 40 39 38 38 35 35 35 27 23 24 24 19 17 16 15 18 21 23 24 21 19 14 9 11 16 19 23 21 20 26 24 21 16 11 18 23 25 25 18 25
41 40 38 38 38 39 40 39 40 38 38 35 34 35 29 26 30 24 17 16 19 20 18 20 20 18 22 18 14 11 12 19 17 20 22 20 19 18 19 17 18 24 25 26 18 18 26
42 41 39 40 39 40 38 40 40 39 37 33 33 36 28 28 28 29 28 19 21 22 16 22 18 20 19 15 15 18 18 20 20 21 21 20 20 19 21 18 12 26 23 20 23 26 28
40 39 39 40 39 40 39 38 36 36 37 33 28 34 33 28 27 31 29 29 25 25 24 25 22 22 21 20 23 23 22 20 18 17 24 16 19 18 19 17 24 26 25 27 27 26 29

GFSGBSN_sfc_30mbdewp_141.txt.gz
Dewpoint
54 55 57 60 59 58 58 58 57 56 55 55 54 53 51 49 48 47 47 46 46 46 46 46 48 49 43 24 6 20 18 21 16 9 7 7 6 6 2 1 5 4 1 6 2 2 1
51 52 54 56 57 59 58 58 57 57 56 55 54 53 52 50 49 48 47 47 46 46 46 46 48 50 39 9 11 12 13 12 10 6 3 3 4 5 3 2 1 5 1 -1 -0 1 3
50 51 51 52 54 54 58 58 58 57 57 55 55 54 52 50 49 48 47 47 46 46 45 46 49 43 30 10 10 13 13 11 9 8 5 5 6 1 4 0 6 3 2 -4 1 0 2
49 49 49 51 52 52 52 53 58 57 57 56 55 54 53 51 49 48 47 45 44 44 44 48 48 38 25 21 15 14 12 12 11 9 8 11 11 10 10 13 6 -0 -1 -9 -1 3 1
45 47 48 49 49 50 51 51 52 56 57 57 56 55 54 52 50 48 46 44 43 43 47 46 39 34 24 26 15 12 10 8 9 11 13 10 13 11 12 4 0 -0 -9 -4 -3 1 -1
43 44 45 46 47 49 49 50 51 52 53 57 56 55 54 52 51 49 45 43 34 41 42 31 26 25 27 17 13 8 10 9 9 12 11 11 11 7 4 -2 -9 -2 -2 -4 -4 -5 -5
42 42 44 44 45 46 46 48 50 51 51 53 56 56 54 53 51 48 42 33 31 33 27 29 30 25 12 13 13 8 9 8 8 10 7 10 5 1 -3 6 6 -1 -8 -10 -9 -5 -1
44 44 44 45 45 45 45 47 48 49 51 51 55 56 54 52 50 46 39 31 26 28 22 30 28 24 19 14 9 9 9 7 7 6 5 7 -1 3 8 5 2 -2 -5 -7 -4 -4 -4
46 46 45 45 45 45 45 46 48 49 51 51 50 55 54 52 48 43 36 30 41 34 23 30 32 25 24 17 14 8 10 7 4 2 4 0 7 10 6 6 1 -4 -2 -2 -5 -4 -2
46 46 46 45 45 46 47 47 48 49 50 50 50 51 53 47 45 40 36 41 41 40 32 35 33 28 27 19 15 15 10 7 3 0 -2 -4 11 9 6 4 3 -7 3 -2 -3 -1 -9
45 46 46 46 47 47 47 48 48 49 50 50 48 50 48 49 44 39 40 42 40 38 25 32 24 21 28 18 14 8 9 5 5 2 4 4 10 8 5 2 5 -2 6 1 4 5 4
44 44 45 46 46 47 47 47 48 48 50 49 48 50 47 45 43 42 43 41 39 31 23 27 15 14 18 17 8 8 7 6 3 5 8 4 11 8 5 6 5 4 4 6 8 9 4
43 44 45 45 46 46 46 47 47 47 48 49 49 49 47 44 41 44 41 39 29 25 34 27 12 12 12 12 6 8 6 7 8 7 4 9 9 8 9 3 7 5 6 -0 4 5 -1
41 42 42 44 45 45 46 46 47 47 47 47 48 47 47 46 44 43 40 34 24 31 30 20 18 12 10 7 5 9 7 8 9 7 6 5 4 9 9 4 2 6 7 2 2 -7 -5
40 41 41 42 43 45 45 46 46 46 47 47 47 44 45 46 45 43 37 28 30 33 31 20 12 8 8 7 8 8 9 10 10 8 7 5 4 9 9 7 4 12 9 14 15 4 9
38 40 41 41 41 43 45 45 46 46 46 46 45 43 43 46 45 40 35 31 32 35 30 22 19 14 9 6 8 8 9 10 10 10 12 8 10 10 9 8 11 13 16 15 16 8 0
37 39 40 41 41 42 42 44 45 45 45 45 41 37 43 46 42 36 29 32 35 35 26 22 20 18 14 10 9 10 11 13 10 12 15 13 13 9 9 8 9 14 11 11 14 10 6
38 39 40 41 41 42 42 43 45 45 44 44 40 31 43 45 31 32 31 34 35 32 30 24 22 21 16 13 10 11 13 15 14 13 10 13 12 9 9 9 9 12 16 14 14 11 12
38 39 40 41 41 41 43 44 44 44 43 42 35 35 43 41 27 28 31 32 33 31 27 27 25 25 23 19 16 18 13 16 13 14 12 16 9 5 5 8 11 11 11 12 14 17 11
39 39 40 41 41 43 43 43 43 43 43 42 36 27 33 37 33 29 27 32 31 29 29 22 21 21 20 19 23 20 18 18 15 13 18 15 11 12 4 7 11 11 7 9 13 16 11
39 40 40 41 43 42 41 42 41 43 43 43 37 31 31 27 30 31 27 27 29 27 25 23 19 18 17 20 21 16 17 17 15 22 15 13 12 12 3 -1 6 10 9 8 13 15 14
39 41 42 42 41 40 42 40 41 40 43 40 33 32 29 26 29 33 30 28 29 28 26 22 19 17 17 18 18 14 16 17 16 19 16 17 8 8 4 -2 -6 -8 0 6 8 10 10
39 42 41 41 40 40 39 40 40 42 42 38 38 36 29 27 28 30 31 29 29 27 26 24 20 18 16 16 17 17 20 22 21 17 17 15 7 1 -2 -6 -8 -2 1 4 19 17 21
40 43 41 40 39 39 40 41 48 47 41 39 37 35 30 26 28 28 28 29 28 29 25 22 21 20 24 23 24 23 22 19 18 16 17 13 7 3 -0 9 7 16 19 14 13 25 23
42 41 41 38 39 39 41 43 47 43 41 39 38 33 30 27 28 27 27 30 29 30 27 23 23 25 24 23 22 21 18 17 15 14 14 10 5 8 7 9 14 21 20 18 16 18 21
41 41 39 38 39 41 41 42 45 44 43 40 39 36 32 30 29 28 30 31 32 30 27 26 26 27 26 21 18 17 18 15 13 12 10 7 7 12 10 8 6 17 20 21 19 16 24
40 40 39 38 41 41 41 42 42 43 43 41 42 42 35 34 31 29 31 30 30 27 26 28 26 26 26 20 19 15 14 13 11 10 9 10 12 14 12 10 15 22 21 21 15 22 24
40 39 39 40 41 41 41 41 42 43 43 41 41 42 36 34 35 33 33 30 28 27 25 27 25 23 24 19 17 17 16 11 14 10 8 6 10 13 12 10 10 23 22 18 25 26 27
39 40 40 40 39 41 41 40 39 42 42 41 38 40 40 35 35 37 35 34 32 27 26 26 23 22 23 22 19 15 15 17 16 15 12 13 13 13 13 15 25 22 24 26 25 24 27

GFSGBSN_sfc_30mbdewp_147.txt.gz
Dewpoint
52 53 54 55 56 57 60 59 58 58 57 57 56 56 55 54 53 52 51 50 49 48 47 44 44 48 43 35 30 25 31 25 18 15 14 5 1 5 6 6 5 4 5 7 5 1 -0
49 51 52 52 52 53 54 54 58 58 58 57 57 56 55 55 54 53 51 50 49 48 47 44 44 49 42 25 25 22 20 18 14 9 6 5 1 4 2 1 0 3 2 3 3 -1 1
47 48 50 50 51 51 51 51 52 52 56 58 57 57 56 55 55 54 52 50 49 48 46 44 44 45 35 17 24 18 13 8 8 9 6 6 6 6 7 3 12 4 1 2 -0 -1 -1
47 47 47 49 50 50 50 50 50 50 51 52 57 57 56 55 55 54 52 51 50 48 47 43 47 41 25 25 29 23 17 11 11 11 8 7 11 10 9 10 10 8 5 -2 -1 -0 3
46 45 45 46 47 46 47 46 48 50 50 51 51 54 56 56 55 54 53 51 51 50 48 45 38 34 29 30 26 23 16 13 12 11 10 9 8 10 11 8 7 4 -1 -1 -2 2 1
45 44 45 45 46 45 46 45 46 47 49 50 51 51 53 56 55 54 53 51 50 48 35 30 29 26 26 31 25 23 20 14 10 10 11 11 7 9 9 9 2 -2 -1 -0 2 2 -0
44 43 43 45 45 46 46 46 47 48 49 49 50 52 51 55 55 53 50 46 40 35 31 35 29 27 33 29 30 15 13 9 9 10 10 11 6 6 7 8 6 3 2 -2 -4 1 -2
47 46 46 45 45 45 45 46 47 47 48 48 47 50 50 52 55 51 44 43 37 36 40 36 33 32 33 33 28 14 11 8 8 7 10 11 9 10 11 10 4 3 -1 -5 -4 -2 -4
47 47 47 46 45 45 45 45 47 47 48 48 47 48 50 53 51 48 43 39 42 43 33 33 33 33 31 32 32 21 14 9 9 8 9 10 11 13 9 7 4 3 -1 -3 -2 -3 -4
46 47 47 46 46 47 47 46 47 48 48 49 49 50 51 49 47 45 43 41 43 47 37 36 37 38 37 32 32 34 18 11 10 9 11 11 12 11 6 5 5 1 3 1 -2 -5 -7
45 45 46 46 47 47 47 48 48 48 48 49 48 50 49 49 45 44 45 41 45 46 25 33 36 39 37 31 28 31 24 14 11 10 12 11 9 10 8 7 5 3 7 6 4 -0 -2
44 44 45 44 45 46 46 46 47 47 48 48 48 50 49 48 45 44 42 42 44 33 23 31 31 31 33 33 30 25 27 20 13 12 14 13 11 9 9 9 6 5 2 2 2 -0 0
43 43 43 44 44 45 46 46 47 47 47 48 48 48 49 47 43 44 43 41 32 24 30 19 29 24 27 33 32 29 22 22 11 11 12 13 10 9 10 7 6 4 1 -2 3 1 2
41 42 41 42 43 43 44 45 46 47 46 47 47 48 47 47 45 43 43 37 25 26 24 30 30 28 22 24 26 28 23 20 15 10 11 9 8 9 9 7 6 5 3 1 5 8 12
38 39 41 42 42 42 42 43 44 44 46 47 46 45 44 46 44 43 39 27 24 27 25 24 24 28 27 19 23 26 23 13 16 13 9 11 9 11 11 9 8 7 4 7 13 11 8
36 38 39 40 41 42 43 43 43 44 43 45 42 41 40 47 45 42 34 26 29 32 31 26 25 28 25 23 19 23 20 15 12 13 14 16 12 10 9 10 9 5 14 9 11 1 -1
37 37 38 39 40 41 42 43 43 43 43 43 40 36 40 47 44 37 27 27 27 29 30 30 27 29 26 21 17 18 19 14 14 14 14 15 19 11 8 8 5 4 8 15 14 13 11
38 38 38 39 39 40 40 41 42 42 42 41 38 30 45 45 33 33 28 27 28 24 28 29 31 33 31 27 23 19 18 14 15 15 14 17 24 16 10 10 9 9 9 16 10 9 14
37 37 37 37 38 39 40 40 41 41 42 37 31 35 44 43 26 28 31 28 28 26 25 28 28 34 34 30 28 26 24 20 15 16 18 17 19 13 13 12 12 10 9 11 16 19 16
35 36 36 36 36 37 38 40 40 40 41 37 31 28 35 38 35 28 26 26 27 28 27 26 28 32 32 30 31 26 26 26 22 21 22 21 18 14 12 15 12 10 9 11 15 14 14
34 35 36 36 37 36 37 38 40 40 41 38 33 28 34 27 30 31 28 25 24 25 27 27 27 30 32 32 28 26 27 26 23 26 24 24 18 17 17 20 19 11 12 10 14 18 14
34 35 36 36 37 37 38 38 40 40 41 37 30 26 33 32 29 30 27 26 22 25 25 25 26 26 30 31 30 25 27 26 25 25 25 27 24 21 19 19 20 6 13 12 11 14 16
31 34 35 35 36 37 39 40 40 41 40 35 36 31 29 26 31 28 26 23 22 22 23 24 26 26 27 31 32 30 31 29 26 24 25 24 22 17 19 22 20 10 6 6 14 19 17
33 34 35 36 36 37 39 40 40 41 41 37 34 31 29 23 25 30 27 25 23 24 22 23 24 27 27 33 35 34 31 28 25 24 25 24 21 22 14 10 8 11 8 5 4 11 14
35 34 36 37 38 39 40 40 41 40 40 39 37 33 28 24 24 24 31 28 26 26 25 24 24 25 33 34 32 29 29 29 27 24 24 24 23 21 17 10 10 16 16 15 15 14 14
35 38 39 40 42 43 43 43 42 44 42 41 38 38 31 25 23 26 27 28 26 25 26 26 26 36 33 30 30 23 20 23 23 24 25 23 23 22 16 9 8 20 16 20 18 21 27
39 40 42 41 40 40 39 40 40 41 42 43 39 38 34 28 25 22 24 26 27 26 25 25 29 33 35 28 26 22 19 21 19 19 20 20 21 18 15 16 20 22 20 19 13 20 27
42 40 40 39 39 39 39 40 40 41 41 41 37 40 35 31 28 25 25 23 27 27 26 31 32 33 34 29 25 27 24 21 17 20 19 18 17 14 16 19 17 22 20 18 28 30 29
40 39 39 39 40 40 41 41 41 41 42 41 36 40 39 33 33 38 33 36 35 28 28 35 31 33 34 31 29 24 22 20 18 15 19 14 18 16 19 21 27 27 28 31 31 30 31

GFSGBSN_sfc_30mbdewp_150.txt.gz
Dewpoint
51 52 53 54 54 55 56 58 59 59 58 57 57 56 56 55 55 54 53 51 50 50 49 47 46 48 39 25 23 27 29 30 24 16 12 8 2 3 4 6 3 4 2 5 4 1 -2
48 50 51 51 51 52 52 53 53 54 57 58 57 57 56 56 55 55 54 53 51 50 49 48 46 49 35 21 28 24 27 21 17 11 9 6 6 4 3 2 1 5 2 1 3 1 -0
46 47 48 49 50 51 51 50 50 51 51 53 57 57 57 57 56 55 55 53 52 51 50 49 45 45 34 21 22 22 21 14 10 8 7 8 9 7 8 4 11 9 2 3 0 -0 -2
46 47 47 45 47 47 48 49 49 50 51 51 51 53 57 57 56 56 55 53 52 51 52 51 46 41 20 27 26 27 27 22 10 10 9 8 10 10 9 9 10 8 8 3 2 0 0
46 46 46 46 46 46 46 46 46 47 49 50 50 51 51 55 56 56 55 54 53 52 51 50 35 33 31 32 30 29 27 20 13 12 10 10 8 8 10 9 8 6 4 1 0 2 1
45 46 45 46 45 46 45 46 46 47 49 49 49 50 51 52 55 55 54 53 52 51 45 38 29 31 32 33 28 24 22 16 12 11 10 10 8 7 10 9 7 6 0 0 0 1 0
44 45 45 44 45 45 46 47 47 47 48 49 49 50 51 51 54 55 52 49 45 40 35 40 35 36 35 32 32 23 22 14 10 10 8 11 6 3 4 9 9 7 6 3 -3 1 -1
45 46 46 45 46 45 45 45 46 47 47 47 48 47 50 50 53 53 47 47 40 39 42 40 36 31 32 33 33 34 12 9 9 7 10 11 9 9 8 9 9 8 7 2 -2 -3 -3
47 46 46 46 46 45 46 46 46 48 48 47 48 48 48 51 52 49 46 42 41 42 40 39 38 40 38 36 37 36 21 10 9 8 8 8 9 13 12 12 11 4 1 -2 -3 -3 -4
47 47 47 46 46 47 47 47 46 47 48 48 48 49 50 50 48 46 44 41 43 45 35 33 37 37 38 38 35 38 31 10 9 9 8 9 10 10 11 11 9 5 4 1 -1 -3 -4
46 46 47 46 46 47 46 46 48 48 47 48 48 49 50 48 45 45 45 42 46 45 16 22 32 39 38 35 32 33 35 14 11 9 10 10 12 12 11 9 7 4 8 4 4 1 -1
46 46 45 46 46 47 47 47 47 47 48 48 48 48 50 47 46 45 42 44 45 32 17 23 34 35 35 34 32 26 33 16 14 11 11 12 14 12 11 10 8 7 2 3 3 1 -4
44 44 44 44 45 45 45 46 46 46 47 47 47 48 49 46 41 44 43 43 32 23 23 15 31 24 33 34 32 30 29 24 18 11 12 13 12 13 10 7 5 3 1 -1 -1 -4 -6
42 43 44 43 44 44 44 45 46 47 47 47 47 48 47 46 45 44 42 36 24 21 23 24 27 23 24 28 33 32 28 24 24 14 13 13 13 13 11 9 6 3 3 2 -2 2 8
41 42 42 43 43 43 44 44 45 44 46 47 45 45 44 46 45 43 37 26 20 25 27 25 22 19 26 25 26 33 32 30 23 18 11 10 11 13 10 9 8 7 3 9 10 14 9
42 40 40 41 42 42 43 43 44 44 44 44 41 40 40 45 45 42 32 25 27 27 27 29 26 24 21 26 25 21 27 30 24 23 17 15 10 12 10 9 9 9 12 6 12 3 -1
41 41 39 39 40 41 41 43 43 44 43 41 40 35 37 46 44 37 26 26 26 26 27 29 28 27 29 28 28 23 25 26 23 21 18 16 17 12 9 9 8 6 6 13 13 11 5
42 40 40 40 39 40 40 40 42 43 43 39 36 29 42 45 32 32 28 28 27 25 26 26 30 31 29 28 29 24 21 21 20 17 14 17 19 12 8 11 9 8 9 13 12 11 15
38 38 39 39 38 39 39 40 40 42 41 38 32 31 42 41 25 27 30 29 26 23 25 25 24 28 33 31 29 31 29 26 19 17 16 21 21 13 14 12 13 9 9 10 19 21 14
37 37 37 37 37 38 38 39 39 40 40 37 32 25 29 37 32 27 27 28 27 27 25 24 26 25 28 31 33 29 29 31 25 26 29 22 22 16 14 16 16 10 10 10 14 12 12
34 35 36 36 36 37 37 38 38 39 39 37 32 27 27 24 29 30 28 26 25 25 26 25 27 27 26 28 30 31 30 27 28 25 23 21 17 17 19 22 23 22 21 15 13 15 13
34 34 35 35 36 36 36 37 38 39 39 35 27 28 30 25 32 31 29 26 25 25 25 25 24 24 28 29 30 27 29 29 25 28 28 28 19 24 18 21 23 22 25 23 18 14 17
32 31 32 33 34 36 37 38 38 39 39 32 35 33 31 23 22 28 27 25 24 23 24 25 25 25 26 27 31 33 36 34 32 27 25 25 25 23 22 25 26 24 26 25 21 18 18
31 31 32 33 34 35 36 37 38 39 39 34 34 31 27 22 21 21 25 31 27 26 25 25 26 26 25 34 36 35 34 33 33 27 27 24 24 23 22 24 17 20 21 24 18 13 23
31 31 32 34 35 35 36 37 38 39 40 37 35 32 28 22 22 20 22 30 31 27 26 24 23 26 27 34 30 27 29 30 30 26 25 25 25 24 21 21 19 17 14 12 12 13 27
34 33 32 33 35 37 37 38 37 38 40 39 37 36 31 25 22 21 21 22 29 29 26 25 28 29 33 31 29 24 21 24 25 28 25 26 29 26 24 19 15 17 17 19 19 15 29
32 33 37 39 40 40 40 39 39 39 40 40 37 39 34 27 25 22 21 22 24 28 28 26 26 29 34 30 27 24 23 25 22 23 25 26 27 23 23 19 16 23 19 20 15 19 29
32 38 40 42 42 41 41 41 42 43 41 40 37 38 35 30 29 27 24 23 30 28 24 27 27 30 30 27 28 26 24 23 21 22 23 23 23 22 23 20 17 24 20 17 26 29 30
39 40 41 39 39 40 39 39 40 40 41 43 35 39 38 32 29 30 28 25 25 30 29 31 26 28 31 30 31 29 23 22 19 18 22 19 20 20 21 20 27 30 28 31 29 30 30

GFSGBSN_sfc_30mbdewp_153.txt.gz
Dewpoint
51 52 53 54 53 54 55 55 56 58 59 58 58 57 57 57 56 55 54 54 53 51 51 50 50 46 39 22 28 30 32 32 24 15 12 7 3 3 3 3 3 3 2 4 7 3 -2
48 49 51 51 51 52 52 52 52 52 53 57 58 57 57 57 57 56 55 55 53 52 51 51 50 46 27 36 28 23 28 21 17 12 8 6 7 7 3 3 1 3 6 1 2 1 -0
47 47 47 48 50 50 50 50 50 50 51 51 52 55 57 57 57 56 56 55 54 53 52 53 49 43 30 37 23 23 22 16 13 9 8 7 9 7 8 4 10 10 7 6 2 1 -1
47 46 46 45 47 48 47 48 47 48 50 50 50 51 52 55 57 56 56 55 54 53 53 52 51 39 34 27 28 28 26 26 25 17 10 9 10 9 9 9 8 7 8 4 3 0 -1
46 47 46 46 46 45 46 46 46 46 47 48 49 49 50 51 53 56 56 55 54 53 53 52 35 31 38 35 33 31 28 26 22 13 11 10 8 8 8 7 6 7 1 3 3 1 0
45 46 46 46 46 46 46 46 45 46 48 49 49 49 51 51 51 55 55 54 53 52 45 40 29 37 38 39 32 25 27 26 17 12 10 10 9 6 9 7 3 5 4 2 1 1 1
45 45 45 45 46 45 45 46 46 47 47 48 48 48 50 50 51 54 53 50 47 42 39 43 38 40 38 33 34 26 23 17 11 10 8 11 8 6 4 8 9 8 7 6 6 -0 0
44 44 45 46 45 45 45 45 47 47 47 47 47 48 48 50 52 53 50 48 45 40 41 42 40 34 35 34 34 39 19 14 11 12 10 9 8 10 8 6 7 7 7 7 7 -1 -1
47 46 46 46 46 46 46 46 46 47 47 47 47 47 48 49 51 50 48 46 40 41 40 41 42 41 40 39 39 39 33 11 9 10 9 7 8 12 12 11 10 10 8 4 -1 -2 -3
47 47 46 46 45 46 48 47 47 47 47 47 47 46 49 50 47 46 45 43 41 45 31 31 37 38 40 39 38 41 38 31 10 10 10 9 9 8 8 10 12 10 10 4 -1 -3 -4
46 47 47 47 47 47 47 48 48 46 47 47 48 47 50 48 45 44 44 43 45 44 -1 17 33 38 38 37 34 36 39 27 25 9 11 11 10 10 8 9 12 11 7 3 3 -0 -1
46 46 46 46 47 46 47 46 47 47 48 47 48 47 49 46 46 45 43 45 45 29 5 17 35 36 36 36 35 30 36 24 25 13 12 16 13 13 12 11 12 9 4 6 4 1 -2
45 45 46 45 45 45 47 46 46 47 47 47 48 48 49 45 39 43 45 44 32 21 21 14 21 32 35 34 34 30 30 27 22 16 16 11 11 12 12 8 6 4 2 2 -1 -3 -1
44 43 44 44 45 44 44 45 45 45 46 46 47 47 48 46 45 43 43 36 22 21 19 22 23 20 24 33 33 32 28 27 23 16 17 18 17 15 14 12 6 3 5 5 1 1 3
42 43 43 43 44 44 44 44 44 45 45 46 46 45 44 46 45 43 38 27 21 22 26 24 21 19 15 22 26 30 32 27 28 21 19 15 15 16 15 11 9 5 3 9 8 15 10
39 40 42 42 43 44 44 42 43 43 44 44 41 41 40 44 45 42 33 22 23 27 23 29 25 23 19 12 23 26 28 32 31 27 21 17 14 13 11 10 10 9 10 5 11 1 1
39 40 41 42 42 43 44 43 43 43 41 42 39 34 36 45 43 36 25 25 26 24 25 27 27 26 28 27 26 25 26 26 25 30 26 21 18 14 9 9 7 10 8 13 13 11 4
39 39 41 42 41 41 42 42 41 42 40 40 35 28 40 44 31 31 27 26 25 24 26 26 28 30 29 29 29 27 25 26 25 25 22 23 23 18 9 12 12 9 11 15 8 10 13
38 39 41 42 42 40 41 42 42 41 40 38 32 30 42 40 24 26 27 29 28 23 23 25 23 26 31 30 26 29 29 31 29 24 23 27 24 25 19 16 12 7 9 13 20 21 13
39 38 39 39 39 39 40 40 41 42 41 37 32 25 29 36 33 25 25 26 26 28 26 24 24 25 22 22 30 28 28 31 33 30 31 26 22 20 18 16 15 9 9 11 19 11 9
38 38 38 39 38 39 39 39 40 40 41 37 32 27 25 23 27 30 25 22 25 25 26 25 26 23 24 22 20 18 26 30 29 33 32 29 24 23 19 18 18 19 20 19 19 18 21
36 36 36 37 37 37 38 38 39 39 40 35 28 27 29 25 26 23 28 24 22 25 25 24 23 22 24 24 27 26 26 30 29 31 31 33 28 29 23 23 23 22 23 26 26 19 20
33 33 34 35 36 36 36 37 38 39 39 33 35 33 29 22 22 25 24 28 24 24 24 25 25 24 23 23 28 30 34 33 33 32 32 32 30 29 24 25 27 25 26 27 26 26 22
35 33 33 32 32 33 35 37 38 38 39 35 34 34 28 20 23 21 20 22 29 27 25 25 26 26 26 31 35 34 34 33 33 33 33 30 30 29 25 25 19 22 22 25 26 27 27
35 35 33 32 32 33 35 36 37 39 39 37 34 30 27 22 21 20 23 21 21 24 26 29 25 26 31 31 25 23 23 25 25 30 31 30 30 26 23 21 22 20 17 19 23 22 27
33 32 32 33 34 35 35 36 37 38 38 38 35 33 29 24 21 20 18 20 20 22 24 31 30 31 31 27 24 19 17 22 22 28 26 27 28 26 23 20 15 17 19 19 20 14 27
33 34 35 35 34 34 35 36 36 37 38 37 36 37 31 26 26 22 20 19 22 22 22 27 29 29 30 24 20 21 21 25 22 23 24 26 27 24 23 21 21 21 20 21 14 16 30
35 34 34 33 34 36 39 39 39 38 37 37 35 39 35 30 27 26 24 22 24 22 19 24 25 26 29 22 22 22 25 24 24 25 25 23 23 23 24 21 18 23 22 17 24 30 30
33 33 33 38 40 40 41 43 41 39 39 38 34 37 38 33 31 30 28 26 24 24 27 27 21 23 26 23 27 28 26 25 22 20 24 22 23 22 23 21 26 30 26 30 30 29 29